Terug naar catalogus

STARLINK-4783

ActiefCommunicatieVLEO
NORAD 53835·PAYLOAD·🇺🇸 United States

Gelanceerd Sep 19, 2022 vanaf Cape Canaveral Space Force Station

Loading…

Volgende Passages (komende 24 uur)

TLE

VersSource: CelesTrak SupGP

Epoch: Sep 15, 2026, 01:32 UTC

1 53835C 22114T   26258.06437500 -.00034588  00000+0 -21692-2 0  2581
2 53835  53.1590 173.1412 0001496  87.2974 268.7351 15.08848223    19

Volg STARLINK-4783 in realtime met AllMySat

Download on the App Store